This is the latest recevied weather packets stored in our database for station/object BARLOW-WX. If no packets are shown the sender has not sent any weather packets the latest 10 day(s).
| Time | Temp. | Humidity | Pressure | Rain* | Wind** | Luminosity | Snow |
|---|---|---|---|---|---|---|---|
| 1777698978 | 0.56° C | 73% | 990.2 hPa | 0 mm | - | - | - |
| 1777698109 | 1.11° C | 73% | 990.2 hPa | 0 mm | - | - | - |
| 1777697179 | 1.11° C | 70% | 989.7 hPa | 0 mm | - | - | - |
| 1777696297 | 1.11° C | 71% | 989.9 hPa | 0 mm | - | - | - |
| 1777695378 | 1.11° C | 71% | 989.9 hPa | 0 mm | - | - | - |
| 1777694510 | 1.11° C | 71% | 989.9 hPa | 0 mm | - | - | - |
| 1777693578 | 1.11° C | 64% | 989.2 hPa | 0 mm | - | - | - |
| 1777692698 | 1.67° C | 68% | 988.9 hPa | 0 mm | - | - | - |
| 1777691777 | 1.67° C | 68% | 988.9 hPa | 0 mm | - | - | - |
| 1777690908 | 1.67° C | 68% | 988.9 hPa | 0 mm | - | - | - |
| 1777689976 | 1.67° C | 64% | 988.2 hPa | 0 mm | - | - | - |
| 1777689095 | 1.67° C | 68% | 989.3 hPa | 0 mm | - | - | - |
| 1777688176 | 2.22° C | 68% | 989.3 hPa | 0 mm | - | - | - |
| 1777687303 | 2.22° C | 68% | 989.3 hPa | 0 mm | - | - | - |
| 1777686376 | 2.22° C | 62% | 989.5 hPa | 0 mm | - | - | - |
| 1777685492 | 2.78° C | 62% | 989.5 hPa | 0 mm | - | - | - |
| 1777684575 | 2.78° C | 62% | 989.5 hPa | 0 mm | - | - | - |
| 1777683701 | 2.78° C | 62% | 989.5 hPa | 0 mm | - | - | - |
| 1777682775 | 2.78° C | 55% | 989.8 hPa | 0 mm | - | - | - |
| 1777681894 | 3.33° C | 58% | 990.2 hPa | 0 mm | - | - | - |
| 1777680976 | 3.89° C | 58% | 990.2 hPa | 0 mm | - | - | - |
| 1777680121 | 4.44° C | 58% | 990.2 hPa | 0 mm | - | - | - |
| 1777679178 | 5° C | 54% | 988.6 hPa | 0 mm | - | - | - |
| 1777678291 | 5.56° C | 55% | 989.8 hPa | 0 mm | - | - | - |
| 1777677378 | 5.56° C | 55% | 989.8 hPa | 0 mm | - | - | - |
* Rain latest hour (hover to see other rain measurements)
** Current wind speed in m/s (hover to see current wind gust speed)